When you browse on this site, cookies collect data to enhance your experience and personalize the content and advertising you see.
Visit our Privacy Policy to learn more. By continuing to use the site, you agree to this use of cookies and data.
  • In Czech Republic
  • List of Countries
  • For 7 days
  • Water Temperature
  • Weather Map
  • Weather Widgets
  • user-avatar
    Login

    Hourly Weather Salta

    Today, 19 September, Thursday

    Time Temperature Precipitation Wind Pressure Humidity
    00:00 +13°C° 0 mm 1 mps 645 mmHg 56%
    01:00 +12°C° 0 mm 1 mps 644 mmHg 55%
    02:00 +12°C° 0 mm 1 mps 644 mmHg 54%
    03:00 +12°C° 0 mm 1 mps 643 mmHg 53%
    04:00 +12°C° 0 mm 1 mps 643 mmHg 52%
    05:00 +11°C° 0 mm 1 mps 643 mmHg 51%
    06:00 +14°C° 0 mm 1 mps 644 mmHg 44%
    07:00 +16°C° 0 mm 1 mps 645 mmHg 37%
    08:00 +20°C° 0 mm 1 mps 646 mmHg 31%
    09:00 +24°C° 0 mm 1 mps 647 mmHg 24%
    10:00 +27°C° 0 mm 1 mps 648 mmHg 17%
    11:00 +31°C° 0 mm 2 mps 649 mmHg 11%
    12:00 +33°C° 0 mm 3 mps 649 mmHg 11%
    13:00 +33°C° 0 mm 4 mps 649 mmHg 11%
    14:00 +34°C° 0 mm 5 mps 649 mmHg 11%
    15:00 +32°C° 0 mm 5 mps 649 mmHg 17%
    16:00 +29°C° 0 mm 5 mps 649 mmHg 22%
    17:00 +26°C° 0 mm 5 mps 649 mmHg 28%
    18:00 +22°C° 0 mm 4 mps 649 mmHg 37%
    19:00 +19°C° 0 mm 3 mps 649 mmHg 47%
    20:00 +16°C° 0 mm 2 mps 649 mmHg 57%
    21:00 +15°C° 0 mm 2 mps 649 mmHg 60%
    22:00 +13°C° 0 mm 2 mps 649 mmHg 62%
    23:00 +12°C° 0 mm 1 mps 649 mmHg 65%

    Tomorrow, 20 September, Friday

    Time Temperature Precipitation Wind Pressure Humidity
    00:00 +11°C° 0 mm 1 mps 649 mmHg 65%
    01:00 +11°C° 0 mm 1 mps 649 mmHg 64%
    02:00 +10°C° 0 mm 1 mps 649 mmHg 64%
    03:00 +10°C° 0 mm 1 mps 649 mmHg 62%
    04:00 +10°C° 0 mm 1 mps 650 mmHg 60%
    05:00 +11°C° 0 mm 1 mps 650 mmHg 58%
    06:00 +12°C° 0 mm 1 mps 650 mmHg 52%
    07:00 +13°C° 0 mm 1 mps 651 mmHg 47%
    08:00 +14°C° 0 mm 1 mps 651 mmHg 42%
    09:00 +15°C° 0 mm 2 mps 652 mmHg 38%
    10:00 +17°C° 0 mm 2 mps 652 mmHg 34%
    11:00 +18°C° 0 mm 3 mps 652 mmHg 30%
    12:00 +19°C° 0 mm 3 mps 652 mmHg 29%
    13:00 +20°C° 0 mm 4 mps 652 mmHg 29%
    14:00 +21°C° 0 mm 4 mps 651 mmHg 29%
    15:00 +20°C° 0 mm 4 mps 651 mmHg 30%
    16:00 +19°C° 0 mm 4 mps 651 mmHg 32%
    17:00 +17°C° 0 mm 4 mps 650 mmHg 33%
    18:00 +14°C° 0 mm 3 mps 651 mmHg 40%
    19:00 +12°C° 0 mm 2 mps 651 mmHg 47%
    20:00 +9°C° 0 mm 1 mps 651 mmHg 53%
    21:00 +9°C° 0 mm 1 mps 651 mmHg 55%
    22:00 +8°C° 0 mm 1 mps 652 mmHg 56%
    23:00 +8°C° 0 mm 1 mps 652 mmHg 57%

    Day after tomorrow, 21 September, Saturday

    Time Temperature Precipitation Wind Pressure Humidity
    00:00 +8°C° 0 mm 1 mps 652 mmHg 56%
    01:00 +8°C° 0 mm 1 mps 652 mmHg 55%
    02:00 +8°C° 0 mm 1 mps 652 mmHg 54%
    03:00 +8°C° 0 mm 1 mps 651 mmHg 56%
    04:00 +7°C° 0 mm 1 mps 651 mmHg 58%
    05:00 +7°C° 0 mm 1 mps 651 mmHg 60%
    06:00 +9°C° 0 mm 1 mps 652 mmHg 53%
    07:00 +12°C° 0 mm 1 mps 653 mmHg 45%
    08:00 +13°C° 0 mm 0 mps 654 mmHg 38%
    09:00 +16°C° 0 mm 1 mps 654 mmHg 36%
    10:00 +18°C° 0 mm 2 mps 654 mmHg 34%
    11:00 +20°C° 0 mm 3 mps 655 mmHg 32%
    12:00 +21°C° 0 mm 3 mps 654 mmHg 31%
    13:00 +24°C° 0 mm 3 mps 654 mmHg 30%
    14:00 +25°C° 0 mm 3 mps 653 mmHg 29%
    15:00 +24°C° 0 mm 3 mps 653 mmHg 31%
    16:00 +24°C° 0 mm 3 mps 653 mmHg 33%
    17:00 +22°C° 0 mm 3 mps 653 mmHg 35%
    18:00 +19°C° 0 mm 2 mps 652 mmHg 45%
    19:00 +16°C° 0 mm 1 mps 652 mmHg 55%
    20:00 +14°C° 0 mm 1 mps 652 mmHg 65%
    21:00 +13°C° 0 mm 1 mps 652 mmHg 69%
    22:00 +11°C° 0 mm 0 mps 652 mmHg 74%
    23:00 +10°C° 0 mm 0 mps 652 mmHg 78%

    22 September, Sunday

    Time Temperature Precipitation Wind Pressure Humidity
    00:00 +10°C° 0 mm 0 mps 652 mmHg 79%
    01:00 +10°C° 0 mm 0 mps 652 mmHg 81%
    02:00 +10°C° 0 mm 1 mps 652 mmHg 82%
    03:00 +10°C° 0 mm 1 mps 652 mmHg 83%
    04:00 +10°C° 0 mm 1 mps 652 mmHg 83%
    05:00 +10°C° 0 mm 1 mps 652 mmHg 84%
    06:00 +12°C° 0 mm 1 mps 653 mmHg 75%
    07:00 +14°C° 0 mm 1 mps 654 mmHg 66%
    08:00 +16°C° 0 mm 0 mps 655 mmHg 57%
    09:00 +20°C° 0 mm 1 mps 656 mmHg 52%
    10:00 +21°C° 0 mm 2 mps 656 mmHg 47%
    11:00 +22°C° 0 mm 3 mps 656 mmHg 42%
    12:00 +24°C° 0 mm 3 mps 655 mmHg 39%
    13:00 +25°C° 0 mm 3 mps 655 mmHg 37%
    14:00 +26°C° 0 mm 4 mps 654 mmHg 34%
    15:00 +26°C° 0 mm 4 mps 654 mmHg 35%
    16:00 +25°C° 0 mm 4 mps 653 mmHg 36%
    17:00 +25°C° 0 mm 4 mps 653 mmHg 37%
    18:00 +21°C° 0 mm 3 mps 653 mmHg 45%
    19:00 +18°C° 0 mm 2 mps 652 mmHg 54%
    20:00 +15°C° 0 mm 1 mps 652 mmHg 62%
    21:00 +15°C° 0 mm 1 mps 652 mmHg 64%
    22:00 +14°C° 0 mm 1 mps 652 mmHg 67%
    23:00 +13°C° 0 mm 1 mps 652 mmHg 69%

    23 September, Monday

    Time Temperature Precipitation Wind Pressure Humidity
    00:00 +13°C° 0 mm 1 mps 652 mmHg 69%
    01:00 +13°C° 0 mm 1 mps 651 mmHg 70%
    02:00 +12°C° 0 mm 1 mps 651 mmHg 71%
    03:00 +12°C° 0 mm 1 mps 651 mmHg 70%
    04:00 +12°C° 0 mm 1 mps 650 mmHg 69%
    05:00 +11°C° 0 mm 1 mps 650 mmHg 68%
    06:00 +14°C° 0 mm 1 mps 651 mmHg 60%
    07:00 +16°C° 0 mm 1 mps 652 mmHg 51%
    08:00 +17°C° 0 mm 0 mps 653 mmHg 43%
    09:00 +22°C° 0 mm 1 mps 654 mmHg 38%
    10:00 +24°C° 0 mm 2 mps 654 mmHg 33%
    11:00 +26°C° 0 mm 2 mps 654 mmHg 29%
    12:00 +27°C° 0 mm 3 mps 654 mmHg 27%
    13:00 +28°C° 0 mm 3 mps 653 mmHg 25%
    14:00 +29°C° 0 mm 3 mps 653 mmHg 23%
    15:00 +28°C° 0 mm 3 mps 653 mmHg 24%
    16:00 +28°C° 0 mm 4 mps 653 mmHg 25%
    17:00 +27°C° 0 mm 4 mps 653 mmHg 27%
    18:00 +24°C° 0 mm 3 mps 653 mmHg 32%
    19:00 +20°C° 0 mm 2 mps 653 mmHg 38%
    20:00 +17°C° 0 mm 2 mps 653 mmHg 43%
    21:00 +17°C° 0 mm 2 mps 654 mmHg 45%
    22:00 +16°C° 0 mm 2 mps 654 mmHg 47%
    23:00 +15°C° 0 mm 1 mps 654 mmHg 49%

    24 September, Tuesday

    Time Temperature Precipitation Wind Pressure Humidity
    00:00 +14°C° 0 mm 1 mps 654 mmHg 51%
    01:00 +13°C° 0 mm 1 mps 654 mmHg 53%
    02:00 +13°C° 0 mm 1 mps 654 mmHg 55%
    03:00 +12°C° 0 mm 1 mps 653 mmHg 57%
    04:00 +12°C° 0 mm 1 mps 653 mmHg 58%
    05:00 +11°C° 0 mm 1 mps 653 mmHg 60%
    06:00 +14°C° 0 mm 1 mps 654 mmHg 53%
    07:00 +16°C° 0 mm 1 mps 656 mmHg 46%
    08:00 +20°C° 0 mm 1 mps 657 mmHg 39%
    09:00 +21°C° 0 mm 1 mps 657 mmHg 35%
    10:00 +23°C° 0 mm 2 mps 657 mmHg 31%
    11:00 +25°C° 0 mm 3 mps 657 mmHg 28%
    12:00 +26°C° 0 mm 3 mps 657 mmHg 27%
    13:00 +26°C° 0 mm 4 mps 656 mmHg 26%
    14:00 +27°C° 0 mm 5 mps 655 mmHg 26%
    15:00 +26°C° 0 mm 5 mps 655 mmHg 27%
    16:00 +25°C° 0 mm 4 mps 655 mmHg 28%
    17:00 +25°C° 0 mm 4 mps 655 mmHg 29%
    18:00 +21°C° 0 mm 3 mps 655 mmHg 35%
    19:00 +18°C° 0 mm 2 mps 655 mmHg 41%
    20:00 +16°C° 0 mm 2 mps 654 mmHg 47%
    21:00 +15°C° 0 mm 1 mps 655 mmHg 49%
    22:00 +14°C° 0 mm 1 mps 655 mmHg 51%
    23:00 +13°C° 0 mm 1 mps 655 mmHg 53%
    Show more